^^
Station Historical Data
 
Daily Summary for December 11, 2018 Units:  English    Metric   Both
« Previous Day
Next Day »
Daily Weekly Monthly Yearly Custom
  Current: High: Low: Average:
Temperature: 46.6 °F TemperatureF °F 45.7 °F 44.6 °F
Dew Point: 42.6 °F DewpointF °F 42.4 °F 41.9 °F
Humidity: 86% Humidity% 86% 87%
Wind Speed: 0mph WindSpeedMPHmph 0mph 0mph
Wind Gust: 0mph WindSpeedGustMPHmph - -
WindCalm - - North
Pressure: 30.15 in PressureIn in 30.13 in -
Precipitation: 0 in      
Historical Graphs
 
 
Tabular Data for December 11, 2018
Time Temperature Dew Point Pressure Wind Wind Speed Wind Gust Humidity Rainfall Rate (Hourly) solar
TemperatureF °F DewpointF °F PressureIn in Calm     Humidity% HourlyPrecipIn in SolarRadiationWatts/m^2 W/m2
00:04 46 °F 43 °F 30.15 in Calm     89% 0 in 0.00 W/m2
00:09 46 °F 42.6 °F 30.13 in Calm     88% 0 in 0.00 W/m2
00:14 46 °F 42.6 °F 30.14 in Calm     88% 0 in 0.00 W/m2
00:19 46 °F 43 °F 30.14 in Calm     89% 0 in 0.00 W/m2
00:24 45.9 °F 42.8 °F 30.14 in Calm     89% 0 in 0.00 W/m2
00:29 45.9 °F 43.2 °F 30.14 in Calm     90% 0 in 0.00 W/m2
00:34 45.7 °F 43 °F 30.14 in Calm     90% 0 in 0.00 W/m2
00:39 45.7 °F 43 °F 30.14 in Calm     90% 0 in 0.00 W/m2
00:44 45.7 °F 43 °F 30.14 in Calm     90% 0 in 0.00 W/m2
00:49 45.7 °F 43 °F 30.14 in Calm     90% 0 in 0.00 W/m2
00:54 45.9 °F 43.2 °F 30.14 in Calm     90% 0 in 0.00 W/m2
00:59 45.9 °F 43.2 °F 30.14 in Calm     90% 0 in 0.00 W/m2
01:04 46 °F 43.3 °F 30.14 in Calm     90% 0 in 0.00 W/m2
01:09 46 °F 43.3 °F 30.14 in Calm     90% 0 in 0.00 W/m2
01:14 46.2 °F 43.5 °F 30.14 in Calm     90% 0 in 0.00 W/m2
01:19 46.2 °F 43.5 °F 30.14 in Calm     90% 0 in 0.00 W/m2
01:24 46.4 °F 43.7 °F 30.14 in Calm     90% 0 in 0.00 W/m2
01:29 46.4 °F 43.9 °F 30.14 in Calm     91% 0 in 0.00 W/m2
01:34 46.4 °F 43.7 °F 30.14 in Calm     90% 0 in 0.00 W/m2
01:39 46.2 °F 43.5 °F 30.14 in Calm     90% 0 in 0.00 W/m2
01:44 46 °F 43.5 °F 30.14 in Calm     91% 0 in 0.00 W/m2
01:49 46 °F 43.5 °F 30.14 in Calm     91% 0 in 0.00 W/m2
01:54 45.9 °F 43.3 °F 30.14 in Calm     91% 0 in 0.00 W/m2
01:59 45.9 °F 43.3 °F 30.15 in Calm     91% 0 in 0.00 W/m2
02:04 45.9 °F 43.3 °F 30.14 in Calm     91% 0 in 0.00 W/m2
02:09 45.9 °F 43.3 °F 30.14 in Calm     91% 0 in 0.00 W/m2
02:14 45.9 °F 43.3 °F 30.14 in Calm     91% 0 in 0.00 W/m2
02:19 46 °F 43.3 °F 30.15 in Calm     90% 0 in 0.00 W/m2
02:24 46.2 °F 42.8 °F 30.15 in Calm     88% 0 in 0.00 W/m2
02:29 46.2 °F 42.6 °F 30.14 in Calm     87% 0 in 0.00 W/m2
02:34 46.4 °F 42.4 °F 30.15 in Calm     86% 0 in 0.00 W/m2
02:39 46.6 °F 42.6 °F 30.15 in Calm     86% 0 in 0.00 W/m2
Spring Hill, FL, USA
Compliments of Weather Underground - 2.25 mb